India Forums Logo

Diya Aur Baati Hum

India Forums > Forum Index > Diya Aur Baati Hum
Diya Aur Baati Hum, is about a Sandhya's struggle, who dreams to become an IPS officer. She dreams to break the boundaries of her narrow confined existence of middle class values.
...
<< | 80 | 81 | 82 | 83 | 84 | 85 | 86 | 87 | 88 | 89 | 90 | 91 | 92 | 93 | 94 | 95 | 96 | 97 | 98 | ... >>
TIDTopic SubjectStart DateLast Entry
3414880regressive show1/30/2013 9:44:38 AM1/30/2013 10:04:45 AM
3414956WU 30Jan13-Babo's Unnecessary Drama W/3 Pots/Lies1/30/2013 10:17:40 AM1/31/2013 4:50:53 AM
3415062Jaur do matka Fevicol sei !1/30/2013 10:57:46 AM1/30/2013 4:49:32 PM
3415130Deepika from Ajmer - New Pics ! <31/30/2013 11:20:24 AM2/5/2013 3:06:15 PM
3415214Okay guys i am offically over this show1/30/2013 11:49:03 AM1/30/2013 2:58:44 PM
3415240Bhabo's technical mind1/30/2013 12:00:24 PM1/30/2013 10:17:02 PM
3415257Article:Who Killed The Show? (Not related to DABH)1/30/2013 12:08:41 PM1/30/2013 8:14:20 PM
3415502what is this trying to potray1/30/2013 3:33:44 PM1/30/2013 4:32:44 PM
3415595dont like babho anymore..1/30/2013 7:37:59 PM1/30/2013 10:14:48 PM
3415625Res1/30/2013 8:33:59 PM1/30/2013 9:25:08 PM
3415915Pics from Shashi Sumeet Production website1/31/2013 2:21:44 AM2/5/2013 1:37:18 PM
3415951TOI: Storylines get TRPs, not stars1/31/2013 3:00:41 AM1/31/2013 8:50:36 AM
3416053Is Baabho GOD ?????1/31/2013 4:33:29 AM1/31/2013 4:52:27 AM
3416374Daksh is chanting Shiv Shambhu :p1/31/2013 8:53:22 AM2/1/2013 1:56:10 AM
3416570DABH WU 31st Jan.'13 College to becum temple1/31/2013 10:15:49 AM2/5/2013 1:14:45 PM
3416672*** Good going Sandy ***1/31/2013 10:53:06 AM2/1/2013 8:12:53 AM
3416840THE GREAT INDIAN PATRIOTS1/31/2013 12:09:28 PM1/31/2013 11:58:40 PM
3417031V'Day Special : See All Members Creations On Pg 121/31/2013 3:05:26 PM2/14/2013 7:19:57 AM
3417037God this Bhabho. Cannot take her anymore1/31/2013 3:28:01 PM2/2/2013 10:13:45 AM
3417273a good news...1/31/2013 10:40:12 PM1/31/2013 10:50:35 PM
3417552Simply Loving it to the Core.2/1/2013 1:49:53 AM2/2/2013 7:43:22 AM
3417602SBS/E24/SBB 3rdFeb13-Suraj -Shaadi karke phas gaya2/1/2013 2:39:01 AM2/24/2013 8:42:05 AM
3417611SBS 1st feb 132/1/2013 2:44:26 AM2/1/2013 3:21:49 AM
3417630* New Pic * New Pic * - IF2/1/2013 2:59:14 AM2/4/2013 3:53:12 AM
3417713res2/1/2013 4:09:03 AM2/1/2013 4:09:03 AM
3418095*Woh Subah Aa Gayi Hain*2/1/2013 9:26:04 AM2/3/2013 10:03:43 PM
3418119What will Bhabho achieve?2/1/2013 9:38:33 AM2/1/2013 11:20:04 AM
3418167WU 1Feb13-Meena&Mohit Know Each Other's Lies2/1/2013 9:59:01 AM2/3/2013 1:56:14 AM
3418357chor chor mausere bhai2/1/2013 11:27:43 AM2/2/2013 3:49:57 AM
3419384I watch the show just 4 Meenakshi2/2/2013 8:22:35 AM2/5/2013 1:29:27 PM
3419571*Dard E BhaSan + Bhabho ke Side Effects*2/2/2013 11:21:08 AM2/5/2013 1:07:07 AM
3419962Contact Info of SashiSumeet Productions + Story2/3/2013 1:01:12 AM2/4/2013 12:41:20 AM
3420372DABANGGG Sandy Takes Revenge !2/3/2013 8:28:38 AM7/9/2013 3:18:05 PM
3420509Recap: Jan 28 - Feb 12/3/2013 10:18:37 AM2/4/2013 1:25:15 AM
3420523DOTW 3rd February 2013 -Inter-religion Marriages.2/3/2013 10:34:29 AM2/12/2013 12:25:25 AM
3420628Neelu injured2/3/2013 12:15:58 PM2/6/2013 11:39:56 PM
3420904some offscreen pictures2/3/2013 10:50:44 PM2/5/2013 3:14:31 PM
3421093Member attained IF next level membership2/4/2013 3:02:24 AM2/7/2013 12:53:51 AM
3421226U Me Aur TV - Feb 4 - DABH2/4/2013 4:42:23 AM2/5/2013 1:48:48 PM
3421300Add new show2/4/2013 5:28:23 AM2/4/2013 5:28:23 AM
3421736Aankhiyon Se Goli Maare Sandy Kaamal Re! ;-)2/4/2013 9:27:15 AM2/5/2013 7:22:42 PM
34217704th Feb - Written Update- Things Falling into Plac2/4/2013 9:40:15 AM2/17/2013 7:48:53 AM
3421808Anas interview in wass up tv2/4/2013 9:50:22 AM2/6/2013 11:39:11 PM
3421915#3matkas~:(SS) part 2 done...2/4/2013 10:19:18 AM2/10/2013 5:19:54 AM
3421959SpiderWeb!!!2/4/2013 10:31:37 AM2/4/2013 11:03:21 AM
3422068*Aankho Mein Teri...*2/4/2013 11:11:18 AM2/14/2013 7:19:58 PM
3422879Anas Rashid in MasterChef India2/4/2013 11:38:59 PM2/6/2013 11:39:33 PM
3423330Anas's Interview (DABH Onset and offset) Video2/5/2013 3:55:37 AM2/24/2013 8:44:15 AM
3423366Offset Pic of Anas - New - 5th Feb 132/5/2013 4:25:22 AM2/7/2013 9:25:39 PM
3423458TB: What Producers Expect From Revised TAM?2/5/2013 5:39:03 AM2/6/2013 11:49:12 PM
3423463Pics!!!!2/5/2013 5:40:32 AM2/7/2013 12:53:22 PM
3423887OMG Daisa Pregnant!!!2/5/2013 9:34:00 AM2/6/2013 11:38:44 PM
3423891Scene Of The Day!2/5/2013 9:35:48 AM2/5/2013 8:36:59 PM
34238995th Feb- Written Update- Curtain Raises 12/5/2013 9:38:43 AM2/17/2013 10:50:56 AM
3423946The Stage is getting ready for a major2/5/2013 10:08:20 AM2/6/2013 2:57:21 AM
3423979New VM On SurYa :D2/5/2013 10:26:42 AM2/6/2013 11:28:46 PM
3423989Meena taking interview of Zinn2/5/2013 10:32:32 AM2/7/2013 12:49:48 AM
3424386TOI: Anas Rashid in MasterChef India2/5/2013 3:58:32 PM2/5/2013 9:16:51 PM
3424480My Introduction!2/5/2013 7:23:50 PM2/6/2013 11:40:21 PM
3424583~~Episode Discussion, 5th Feb ~~2/5/2013 9:41:37 PM2/6/2013 7:44:53 AM
3424610No TRP today??!!2/5/2013 10:06:51 PM2/6/2013 11:19:24 PM
3425022Nach Baliye Pics - Bhabho's New Avatar2/6/2013 3:51:56 AM2/7/2013 12:05:41 PM
3425247**New Article- Neeluji and Akshay Kumar**2/6/2013 7:01:27 AM2/6/2013 11:30:03 PM
3425503Mahaepisode promo 9th feb2/6/2013 9:18:19 AM2/7/2013 1:41:07 AM
3425521Its a Plea...2/6/2013 9:24:21 AM2/7/2013 2:16:10 PM
3425534Chamatkaar Chamatkaar Chamatkaar!!!2/6/2013 9:30:06 AM2/7/2013 4:12:27 AM
3425566WU 6Feb13-Rathis Blessed 2 Serve Swamiji2/6/2013 9:44:50 AM2/19/2013 11:47:02 AM
3425688Catch~Coconut~ Swamiji CAUGHT?!2/6/2013 10:35:49 AM2/7/2013 9:37:47 PM
3426012ME promo link - 9th Feb2/6/2013 2:16:28 PM2/7/2013 11:53:30 AM
3426279Pace is set...2/6/2013 10:07:21 PM2/8/2013 1:22:39 AM
3426390TRP 4.3 Channel leader overall 2nd2/6/2013 11:53:51 PM2/7/2013 12:00:39 PM
3426467Vote for SurYa:SP Poll2/7/2013 12:52:16 AM2/7/2013 11:38:05 AM
3426565Bhabho's gondhal2/7/2013 2:22:54 AM2/7/2013 12:24:17 PM
3426800SBS & SBB - Feb 7 - WU & Link2/7/2013 5:08:57 AM2/7/2013 8:24:42 PM
3427238B'Prediction+lal's truth+surya n action-edited2/7/2013 9:43:22 AM2/8/2013 7:53:30 AM
<< | 80 | 81 | 82 | 83 | 84 | 85 | 86 | 87 | 88 | 89 | 90 | 91 | 92 | 93 | 94 | 95 | 96 | 97 | 98 | ... >>